Weatherford, Texas, United States (76085)
Lat: 32.76N, Lon: 97.8W
Wx Zone: TXZ117
Local Info
Past Weather Observations for Yesterday

NOTE: This archive is for the closest National Weather Service station to Weatherford. Information may differ from the station used for current weather conditions.

Click here for Long-term Archive

Time Weather Temperature Dewpoint Humidity Pressure Winds Precip Visibility
23:53
Clear
70°F / 21°C 61°F / 16°C 73% 29.86 in
(1011 mb)
SSE 12.7 mph
(SSE 20 kph)
- 10SM
22:53
Clear
70°F / 21°C 61°F / 16°C 73% 29.89 in
(1012 mb)
SSE 10.4 mph
(SSE 17 kph)
- 10SM
21:53
Clear
70°F / 21°C 61°F / 16°C 73% 29.89 in
(1012 mb)
SE 8.1 mph
(SE 13 kph)
- 10SM
20:53
Clear
73°F / 23°C 61°F / 16°C 65% 29.86 in
(1011 mb)
SSE 13.8 mph
(SSE 22 kph)
- 10SM
19:53
Clear
75°F / 24°C 57°F / 14°C 54% 29.86 in
(1011 mb)
SSE 10.4 mph
(SSE 17 kph)
- 10SM
18:53
Clear
79°F / 26°C 57°F / 14°C 48% 29.83 in
(1010 mb)
S 8.1 mph
(S 13 kph)
- 10SM
16:53
Clear
84°F / 29°C 59°F / 15°C 43% 29.83 in
(1010 mb)
S 15 mph
(S 24 kph)
- 10SM
15:53
Clear
86°F / 30°C 61°F / 16°C 43% 29.86 in
(1011 mb)
S 12.7 mph
(S 20 kph)
- 10SM
14:53
Clear
86°F / 30°C 61°F / 16°C 43% 29.89 in
(1012 mb)
S 15 mph
(S 24 kph)
- 10SM
13:53
Clear
84°F / 29°C 63°F / 17°C 48% 29.92 in
(1013 mb)
SSE 17.3 mph
(SSE 28 kph)
- 10SM
12:53
Clear
82°F / 28°C 64°F / 18°C 55% 29.95 in
(1014 mb)
S 8.1 mph
(S 13 kph)
- 10SM
11:53
Clear
81°F / 27°C 64°F / 18°C 58% 29.98 in
(1015 mb)
SSE 12.7 mph
(SSE 20 kph)
- 10SM
10:53
Clear
79°F / 26°C 64°F / 18°C 61% 30.01 in
(1016 mb)
S 13.8 mph
(S 22 kph)
- 10SM
09:53
Clear
73°F / 23°C 63°F / 17°C 69% 30.01 in
(1016 mb)
SW 9.2 mph
(SW 15 kph)
- 10SM
08:53
Clear
70°F / 21°C 63°F / 17°C 78% 30.01 in
(1016 mb)
SSE 9.2 mph
(SSE 15 kph)
- 10SM
07:53
Clear
64°F / 18°C 61°F / 16°C 88% 30.01 in
(1016 mb)
SSE 10.4 mph
(SSE 17 kph)
- 9SM
06:53
Clear
Fog And Mist
63°F / 17°C 61°F / 16°C 94% 30.01 in
(1016 mb)
SE 8.1 mph
(SE 13 kph)
- 6SM
05:53
Clear
61°F / 16°C 57°F / 14°C 88% 29.98 in
(1015 mb)
SE 5.8 mph
(SE 9 kph)
- 7SM
04:53
Clear
63°F / 17°C 61°F / 16°C 94% 29.98 in
(1015 mb)
S 8.1 mph
(S 13 kph)
- 9SM
03:53
Clear
63°F / 17°C 61°F / 16°C 94% 29.98 in
(1015 mb)
SE 5.8 mph
(SE 9 kph)
- 10SM
02:53
Clear
64°F / 18°C 61°F / 16°C 88% 29.98 in
(1015 mb)
S 6.9 mph
(S 11 kph)
- 10SM
01:53
Clear
66°F / 19°C 61°F / 16°C 83% 29.98 in
(1015 mb)
S 6.9 mph
(S 11 kph)
- 10SM
00:53
Clear
66°F / 19°C 61°F / 16°C 83% 29.98 in
(1015 mb)
SSE 6.9 mph
(SSE 11 kph)
- 10SM
Time Weather Temperature Dewpoint Humidity Pressure Winds Precip Visibility


Weather for websites

WeatherForYou.com, LLC is not responsible for any damages or problems caused by this service. Current weather conditions are obtained from the closest station including government and personal stations which may have varying degrees of accuracy. Weather forecasts are derived from the NOAA NDFD. Like all things, this site belongs to Jesus Christ... He just trusts me to maintain it. If you have any questions or comments email webmaster@weatherforyou.com

Copyright © 2015, WeatherForYou.com LLC. All rights reserved.